Regional Weather Roundup
Issued by NWS Albany, NY

Home | Current Version | Previous Version | Text Only | Print | Product List | Glossary On
Versions: 1 2 3 4 5 6 7 8 9 10 11 12 13 14 15 16 17 18 19 20 21 22 23 24 25 26 27 28 29 30 31 32 33 34 35 36 37 38 39 40 41 42 43 44 45 46 47 48 49 50
000
ASUS41 KALY 141810
RWRALY

NEW YORK STATE HOURLY WEATHER ROUNDUP
NATIONAL WEATHER SERVICE ALBANY NY
200 PM EDT SUN SEP 14 2014

NOTE: "FAIR" INDICATES FEW OR NO CLOUDS BELOW 12,000 FEET WITH NO
SIGNIFICANT WEATHER AND/OR NO OBSTRUCTIONS TO VISIBILITY.

NYZ032-033-038>043-046>054-057>066-NYZ062>081-141900-
EAST


CITY           SKY/WX    TMP DP  RH WIND       PRES   REMARKS
ALBANY         PTSUNNY   59  42  53 VRB3      30.28F
GLENS FALLS    MOSUNNY   57  39  51 CALM      30.27F
POUGHKEEPSIE   SUNNY     65  42  43 NW6       30.23F
NEWBURGH       MOSUNNY   64  46  52 N6        30.26S
MONTGOMERY     SUNNY     65  44  46 CALM      30.23F
WHITE PLAINS   SUNNY     65  40  39 N7        30.22F
ISLIP          PTSUNNY   65  44  46 NW9       30.20F
NEW YORK CITY  PTSUNNY   67  43  41 VRB7      30.22F
CENTRAL PARK   SUNNY     70  43  37 VRB7      30.25F
$$

NYZ005>009-017-018-044>046-055-056-141900-
CENTRAL


CITY           SKY/WX    TMP DP  RH WIND       PRES   REMARKS
FULTON         MOSUNNY   58  43  57 NW7       30.29F
SYRACUSE       MOSUNNY   60  42  51 VRB5      30.29F
ROME           MOSUNNY   57  41  55 CALM      30.30F
ELMIRA         MOSUNNY   62  45  53 VRB5      30.28F
BINGHAMTON     SUNNY     58  41  53 VRB6      30.27F
MONTICELLO     SUNNY     61  41  48 CALM      30.26S
$$

NYZ026>034-041>043-141900-
NORTH


CITY           SKY/WX    TMP DP  RH WIND       PRES   REMARKS
WATERTOWN      SUNNY     56  41  57 W7        30.30F
FORT DRUM      NOT AVBL
MASSENA        CLOUDY    49  40  71 NW7       30.33S
SARANAC LAKE   CLOUDY    47  38  71 CALM      30.25F
PLATTSBURGH    CLOUDY    52  41  66 NE6       30.28F
$$

NYZ001>004-010>016-019>021-141900-
WEST


CITY           SKY/WX    TMP DP  RH WIND       PRES   REMARKS
NIAGARA FALLS  PTSUNNY   58  41  53 S5        30.30F
BUFFALO        PTSUNNY   58  39  49 CALM      30.30F
DUNKIRK        CLOUDY    59  44  57 N8        30.30F
JAMESTOWN      CLOUDY    48  39  71 CALM      30.30F
WELLSVILLE     PTSUNNY   55  41  59 NW7       30.29F
ROCHESTER      PTSUNNY   57  40  52 CALM      30.30F
PENN YAN       MOSUNNY   58  41  53 CALM      30.30F
$$

             KEY
       WCI = WIND CHILL INDEX
       VSB = VISIBILITY
       HX  = HEAT INDEX
$$


USA.gov is the U.S. government's official web portal to all federal, state and local government web resources and services.